User: anonymous   Login
Location: Frydek-Mistek
(49.6830°N, 18.3330°E)
Time: 17:17:08
(UTC+01:00)
Language:

Courier 1B Rocket - Orbit

View from above orbital plane
View from above orbital plane
View from above satellite
View from above satellite

Ground track
Ground track

The orbit data is extracted from the following two-line orbital elements,

1    59U 60013B   18054.93325464 +.00000100 +00000-0 +19596-4 0  9993
2    59 028.2468 236.2544 0189221 037.9526 323.4192 13.52957345832143
Epoch (UTC): 23 February 2018 22:23:53
Eccentricity: 0.0189221
inclination: 28.2468°
perigee height: 920 km
apogee height: 1202 km
right ascension of ascending node: 236.2544°
argument of perigee: 37.9526°
revolutions per day: 13.52957345
mean anomaly at epoch: 323.4192°
orbit number at epoch: 83214

The dashed part of the orbit path shows where the satellite is in the earth's shadow,  

DLR